This is the latest recevied weather packets stored in our database for station/object K1TTC. If no packets are shown the sender has not sent any weather packets the latest 1 day(s).
| Time | Temp. | Humidity | Pressure | Rain* | Wind** | Luminosity | Snow |
|---|---|---|---|---|---|---|---|
| 1777995796 | 24.44° C | 40% | 1010.4 hPa | 0 mm | 2.24 m/s, 250° | 865 W/m² | - |
| 1777995196 | 23.89° C | 42% | 1010.5 hPa | 0 mm | 2.24 m/s, 236° | 858 W/m² | - |
| 1777994595 | 23.89° C | 43% | 1010.5 hPa | 0 mm | 2.24 m/s, 201° | 1121 W/m² | - |
| 1777994115 | 23.33° C | 45% | 1010.5 hPa | 0 mm | 1.79 m/s, 168° | 886 W/m² | - |
| 1777993396 | 22.78° C | 47% | 1010.3 hPa | 0 mm | 2.24 m/s, 207° | 828 W/m² | - |
| 1777992794 | 22.22° C | 46% | 1010.5 hPa | 0 mm | 2.68 m/s, 200° | 814 W/m² | - |
| 1777992194 | 21.67° C | 48% | 1010.7 hPa | 0 mm | 1.79 m/s, 203° | 812 W/m² | - |
| 1777991711 | 20.56° C | 49% | 1010.9 hPa | 0 mm | 2.68 m/s, 253° | 856 W/m² | - |
| 1777990994 | 20° C | 50% | 1011 hPa | 0 mm | 2.24 m/s, 132° | 360 W/m² | - |
| 1777990394 | 19.44° C | 51% | 1010.9 hPa | 0 mm | 1.79 m/s, 201° | 251 W/m² | - |
| 1777989796 | 19.44° C | 53% | 1010.8 hPa | 0 mm | 2.24 m/s, 177° | 795 W/m² | - |
| 1777989302 | 18.89° C | 54% | 1010.9 hPa | 0 mm | 2.24 m/s, 204° | 345 W/m² | - |
| 1777988593 | 18.33° C | 57% | 1010.8 hPa | 0 mm | 1.34 m/s, 233° | 798 W/m² | - |
| 1777987992 | 17.22° C | 58% | 1010.9 hPa | 0 mm | 1.34 m/s, 184° | 642 W/m² | - |
| 1777987392 | 17.22° C | 57% | 1010.9 hPa | 0 mm | 1.34 m/s, 183° | 107 W/m² | - |
| 1777986793 | 17.78° C | 56% | 1011.1 hPa | 0 mm | 1.79 m/s, 109° | 100 W/m² | - |
| 1777986191 | 17.78° C | 54% | 1011.2 hPa | 0 mm | 1.79 m/s, 157° | 67 W/m² | - |
| 1777985590 | 17.22° C | 56% | 1011 hPa | 0 mm | 1.34 m/s, 178° | 619 W/m² | - |
| 1777984986 | 16.67° C | 56% | 1011 hPa | 0 mm | 1.79 m/s, 216° | 526 W/m² | - |
| 1777984387 | 16.11° C | 57% | 1011 hPa | 0 mm | 2.24 m/s, 218° | 629 W/m² | - |
| 1777983786 | 15.56° C | 58% | 1011 hPa | 0 mm | 2.24 m/s, 201° | 587 W/m² | - |
| 1777983290 | 15.56° C | 58% | 1011 hPa | 0 mm | 2.68 m/s, 251° | 179 W/m² | - |
| 1777982582 | 15.56° C | 59% | 1010.9 hPa | 0 mm | 1.79 m/s, 192° | 160 W/m² | - |
| 1777981983 | 15° C | 60% | 1010.9 hPa | 0 mm | 2.24 m/s, 171° | 192 W/m² | - |
| 1777981383 | 14.44° C | 61% | 1010.8 hPa | 0 mm | 1.34 m/s, 199° | 176 W/m² | - |
* Rain latest hour (hover to see other rain measurements)
** Current wind speed in m/s (hover to see current wind gust speed)